Hourly Data Report for September 27, 2017

All times are specified in Local Standard Time (LST). Add 1 hour to adjust for Daylight Saving Time where and when it is observed.

RANKIN INLET A
NUNAVUT

62°48'38.000" N
92°06'53.000" W
32.30 m
2303405
71083
YRT

Download Data

Hourly Data (September 2017)
Hourly Data Report for September 27, 2017
Temp Definition
°C
Dew Point Temp Definition
°C
Rel Hum Definition
%
Wind Dir Definition
10's deg

Wind Spd Definition
km/h
Visibility Definition
km
Stn Press Definition
kPa
Hmdx Definition


Wind Chill Definition


Weather Definition


TIME
00:00 Legend Double Dagger 4.6 3.5 92 17 26 24.1 101.01     Mostly Cloudy
01:00 Legend Double Dagger 4.6 3.4 92 16 24 24.1 100.98     LegendNANA
02:00 Legend Double Dagger 4.7 3.4 91 15 26 24.1 100.94     LegendNANA
03:00 Legend Double Dagger 4.8 3.4 91 14 22 24.1 100.91     Mostly Cloudy
04:00 Legend Double Dagger 4.8 3.3 90 14 25 24.1 100.88     LegendNANA
05:00 Legend Double Dagger 4.7 3.3 91 14 23 24.1 100.88     LegendNANA
06:00 Legend Double Dagger 4.7 3.3 91 14 22 24.1 100.86     Mostly Cloudy
07:00 Legend Double Dagger 4.9 3.6 91 14 27 24.1 100.85     LegendNANA
08:00 Legend Double Dagger 5.1 3.8 92 14 28 24.1 100.84     LegendNANA
09:00 Legend Double Dagger 5.4 4.3 92 13 23 24.1 100.84     Cloudy
10:00 Legend Double Dagger 5.5 4.5 93 12 22 16.1 100.84     Rain Showers
11:00 Legend Double Dagger 5.6 4.6 94 12 21 16.1 100.83     Rain
12:00 Legend Double Dagger 5.7 5.0 95 11 17 9.7 100.86     Rain
13:00 Legend Double Dagger 5.7 5.1 96 11 17 8.1 100.89     Rain
14:00 Legend Double Dagger 5.8 5.1 95 11 17 6.4 100.90     Rain,Fog
15:00 Legend Double Dagger 5.7 5.0 95 11 14 9.7 100.94     Rain
16:00 Legend Double Dagger 5.6 5.0 96 10 10 16.1 100.97     Rain
17:00 Legend Double Dagger 5.5 4.8 95 7 11 16.1 101.01     LegendNANA
18:00 Legend Double Dagger 5.2 4.5 95 4 12 16.1 101.06     Cloudy
19:00 Legend Double Dagger 3.7 3.3 97 3 12 24.1 101.09     LegendNANA
20:00 Legend Double Dagger 4.1 3.6 96 5 10 24.1 101.12     LegendNANA
21:00 Legend Double Dagger 4.3 3.4 94 7 9 24.1 101.15     Mostly Cloudy
22:00 Legend Double Dagger 3.5 2.7 95 2 5 24.1 101.18     LegendNANA
23:00 Legend Double Dagger 1.6 1.2 97 35 6 24.1 101.23     LegendNANA

Notes on Data Quality.

Legend

  • E = Estimated
  • M = Missing
  • NA = Not Available
  • ‡ = Partner data that is not subject to review by the National Climate Archives
Date modified: